Weather in Pekalongan

Indonesia     6°53′38″S   109°40′33″E
temp.,
°C
wind,
m/s
gust,
m/s
humid.,
%
clouds,
%
prec.,
mm/h
press.,
hPa
HPBL,
m
9 march, tue
tue901:00+23sw2489100 1.0 1011141
04:00+22ssw2390100 0.8 1009111
07:00+23ssw1290100 0.8 1011105
10:00+26w3676100 0.6 1012929
13:00+28wnw467097 1.4 10091147
16:00+25wnw358493 1.3 1008691
19:00+23sw239495 3.4 1010106
22:00+22sw2494100 1.3 1012181
10 march, wed
wed1001:00+22wsw2595100 1.6 1011214
04:00+22sw2395100 0.9 1010162
07:00+23sw239398 1.8 1012217
10:00+25wnw358698 1.8 1012664
13:00+26wnw468170 3.8 1009838
16:00+24wnw349078 2.6 1008506
19:00+22sw129586 3.3 101170
22:00+22ssw129282 0.4 101257
11 march, thu
thu1101:00+22ssw229091 0.6 101147
04:00+22ssw238976 0.0 101051
07:00+23sw258969 0.0 1012304
10:00+27wnw34732 0.1 1012909
13:00+28wnw457113 1.4 1009989
16:00+26wnw347738 1.3 1008848
19:00+23sw118969 1.4 101129
22:00+23sse1287100 1.0 101324
12 march, fri
fri1201:00+23ssw1185100 1.7 101226
04:00+22sw129198 0.4 101182
07:00+24sw128593 0.4 1012102
10:00+28nw226851 0.1 1012739
13:00+28nw336641 1.9 1010991
16:00+26nnw228159 5.9 1009454
19:00+23s119576 18.9 101162
22:00+23se1193100 2.9 101359
13 march, sat
sat1301:00+22ssw119197 4.6 101129
04:00+21ssw129191 0.1 101046
07:00+23sse128289 0.1 101146
10:00+28n226275 0.0 1012746
13:00+28n227058 1.4 1009840
16:00+26nw118129 5.1 1008423
19:00+23sw119140 9.7 101028
22:00+22s128859 0.9 101229